ROMMA est une association bénévole à but non lucratif. Votre soutien est indispensable : ADHERER à ROMMA ou FAIRE un DON

Val-d'Isère - (73, Savoie)

Haute-Maurienne (1850 m)   Longitude: 6° 58' 52'' E   Latitude: 45° 26' 53'' N Station partenaire n°93
 

Détail journalier du     <<     >>

Température Precipitation Humidité Vent Dir Rafale Dir. rafale Ensol.
Heure (°C) (mm) (%) (km/h) (km/h) (min)
01:00 1.50606E15ESE0
02:00 1.30634E10ESE0
03:00 1.90585SE23NNO0
04:00 2.405811NE23NNE0
05:00 1.80607NNE23NE0
06:00 2.20615ESE19SE0
07:00 2.20616SSE21ENE0
08:00 1.80656N27N60
09:00 2.80606E23NO0
10:00 4.10497ESE29NO60
11:00 4.30479E34NNO60
12:00 5.30468NE26NNE60
13:00 5.20518NE26O60
14:00 4.405410NO45NO30
15:00 3.106216NO45NO0
16:00 3.106511ONO42N0
17:00 3.50607ENE40O0
18:00 2.90677NNE32NO0
19:00 2.60666E23O0
20:00 2.20629E35NO0
21:00 0.807911NO39NO0
22:00 1.207410E31ONO0
23:00 -0.10877E18E0
minuit -0.50938ESE18ESE0

Graphique du 06-04-2019

 

Serveur OMMA